This is the latest recevied weather packets stored in our database for station/object N5SRF. If no packets are shown the sender has not sent any weather packets the latest 1 day(s).
| Time | Temp. | Humidity | Pressure | Rain* | Wind** | Luminosity | Snow |
|---|---|---|---|---|---|---|---|
| 1836274685 | 24.44° C | 88% | 1020 hPa | 0 mm | 0.45 m/s, 183° | 0 W/m² | - |
| 1836274538 | 24.44° C | 89% | 1020.1 hPa | 0 mm | 0.45 m/s, 204° | 0 W/m² | - |
| 1836274383 | 24.44° C | 88% | 1020.3 hPa | 0 mm | 0 m/s | 0 W/m² | - |
| 1836274236 | 24.44° C | 88% | 1020 hPa | 0 mm | 0.45 m/s, 210° | 0 W/m² | - |
| 1836274081 | 24.44° C | 88% | 1020.2 hPa | 0 mm | 0.45 m/s, 189° | 0 W/m² | - |
| 1778036847 | 24.44° C | 94% | 1012.6 hPa | 0 mm | 1.34 m/s, 143° | 0 W/m² | - |
| 1778036545 | 24.44° C | 94% | 1012.3 hPa | 0 mm | 0.45 m/s, 156° | 0 W/m² | - |
| 1778036241 | 24.44° C | 94% | 1012.6 hPa | 0 mm | 0.89 m/s, 161° | 0 W/m² | - |
| 1778035937 | 24.44° C | 94% | 1012.5 hPa | 0 mm | 0.45 m/s, 188° | 0 W/m² | - |
| 1778035635 | 24.44° C | 94% | 1012.6 hPa | 0 mm | 0.89 m/s, 183° | 0 W/m² | - |
| 1778035331 | 24.44° C | 94% | 1012.6 hPa | 0 mm | 0.45 m/s, 193° | 0 W/m² | - |
| 1778035027 | 24.44° C | 94% | 1012.7 hPa | 0 mm | 0.45 m/s, 182° | 0 W/m² | - |
| 1778034725 | 24.44° C | 94% | 1012.5 hPa | 0 mm | 0 m/s | 0 W/m² | - |
| 1778034422 | 24.44° C | 94% | 1012.2 hPa | 0 mm | 0.45 m/s, 146° | 0 W/m² | - |
| 1778034119 | 24.44° C | 94% | 1012.1 hPa | 0 mm | 0.89 m/s, 129° | 0 W/m² | - |
| 1778033817 | 24.44° C | 94% | 1011.9 hPa | 0 mm | 0 m/s | 0 W/m² | - |
| 1778033514 | 24.44° C | 94% | 1011.9 hPa | 0 mm | 0.89 m/s, 139° | 0 W/m² | - |
| 1778033211 | 24.44° C | 94% | 1011.7 hPa | 0 mm | 1.34 m/s, 181° | 0 W/m² | - |
| 1778032908 | 24.44° C | 94% | 1011.6 hPa | 0 mm | 0.45 m/s, 160° | 0 W/m² | - |
| 1778032606 | 24.44° C | 94% | 1011.7 hPa | 0 mm | 1.79 m/s, 129° | 0 W/m² | - |
| 1778032303 | 24.44° C | 94% | 1011.5 hPa | 0 mm | 0.45 m/s, 140° | 0 W/m² | - |
| 1778032001 | 25° C | 93% | 1011.4 hPa | 0 mm | 0.45 m/s, 174° | 0 W/m² | - |
| 1778031696 | 25° C | 93% | 1011.4 hPa | 0 mm | 1.34 m/s, 200° | 0 W/m² | - |
| 1778031394 | 25° C | 93% | 1011.3 hPa | 0 mm | 0.45 m/s, 189° | 0 W/m² | - |
| 1778031091 | 25° C | 92% | 1011.2 hPa | 0 mm | 1.79 m/s, 89° | 0 W/m² | - |
* Rain latest hour (hover to see other rain measurements)
** Current wind speed in m/s (hover to see current wind gust speed)